Miscellaneous Local Product
Issued by NWS Hastings, NE

Home | Current Version | Previous Version | Graphics & Text | Print | Product List | Glossary On
Versions: 1 2 3 4 5 6 7 8 9 10 11 12 13 14 15 16 17 18 19 20 21 22 23 24 25 26 27 28 29 30 31 32 33 34 35 36 37 38 39 40 41 42 43 44 45 46 47 48 49 50
117
AXUS43 KGID 251202
MISGRI

GID CWA HOURLY WEATHER ROUNDUP
NATIONAL WEATHER SERVICE HASTINGS NE
700 AM CDT MON JUL 25 2016

NOTE: "FAIR" INDICATES FEW OR NO CLOUDS BELOW 12,000 FEET WITH NO
SIGNIFICANT WEATHER AND/OR OBSTRUCTIONS TO VISIBILITY.

...SOUTH CENTRAL NEBRASKA...

CITY           SKY/WX    TMP DP  RH WIND       PRES   REMARKS
GRAND ISLAND   CLOUDY    64  61  90 N3        30.14R
HASTINGS       CLOUDY    67  62  84 E6        30.15R
KEARNEY        CLOUDY    64  61  88 CALM      30.17R
ORD            PTCLDY    60  57  89 CALM      30.14R
YORK           CLOUDY    64  63  94 CALM      30.13R
AURORA         CLOUDY    64  63  97 CALM      30.13R
LEXINGTON      MOCLDY    62  60  94 CALM      30.17R FOG
HOLDREGE       CLOUDY    64  63  94 CALM      30.16R
HEBRON         CLOUDY    67  64  90 NE3       30.12R

...NEBRASKA PANHANDLE...

CITY           SKY/WX    TMP DP  RH WIND       PRES   REMARKS
CHADRON        CLEAR     61  54  77 CALM      30.12S
ALLIANCE       CLEAR     55  55 100 SE7       30.18S
SCOTTSBLUFF    CLEAR     58  54  86 E9        30.17R
SIDNEY         CLEAR     55  52  89 S7        30.23R

...WESTERN AND NORTH CENTRAL NEBRASKA...

CITY           SKY/WX    TMP DP  RH WIND       PRES   REMARKS
VALENTINE      CLEAR     60  57  89 SW6       30.15R
AINSWORTH      CLEAR     58  53  85 S7        30.16R
ONEILL         MOCLDY    60  58  94 SW5       30.15R
BROKEN BOW     CLEAR     59  58  96 N3        30.16S
IMPERIAL       CLEAR     60  58  92 S3        30.18R
NORTH PLATTE   CLEAR     60  58  92 E3        30.18R
MCCOOK         PTCLDY    62  60  93 NE5       30.16R FOG

...EASTERN NEBRASKA...

CITY           SKY/WX    TMP DP  RH WIND       PRES   REMARKS
NORFOLK        CLEAR     60  57  89 CALM      30.13R
SO SIOUX CITY  PTCLDY    63  61  93 CALM      30.12R
TEKAMAH        CLEAR     63  60  90 CALM      30.11R
COLUMBUS       CLOUDY    63  54  72 CALM      30.12R
ALBION         PTCLDY    58  56  91 NW5       30.13S
OMAHA EPPLEY   CLOUDY    66  62  87 N7        30.10R
OFFUTT AFB     CLOUDY    65  63  94 E2        30.10R
MILLARD        MOCLDY    69  64  85 SE5       30.11R
LINCOLN        CLOUDY    67  65  93 CALM      30.12R
NEBRASKA CITY  CLOUDY    66  66 100 NE6       30.10S
BEATRICE       CLOUDY    67  64  90 E3        30.11R
FALLS CITY     CLOUDY    68  66  93 CALM      30.08R

...NORTHERN KANSAS...

CITY           SKY/WX    TMP DP  RH WIND       PRES   REMARKS
GOODLAND       CLEAR     59  57  93 W3        30.19R
HILL CITY      RAIN      66  65  96 N5        30.10F FOG
NORTON         SUNNY     68  57  68 NE5       30.13S
SMITH CENTER   MOCLDY    66  64  94 NE5       30.13R
BELOIT         CLOUDY    70  64  83 E13       30.10S
HAYS           CLOUDY    66  57  72 N17G23    30.09R
RUSSELL        LGT RAIN  67  66  97 N15       30.08R
CONCORDIA      LGT RAIN  68  65  90 N5        30.14R FOG
SALINA         LGT RAIN  72  69  90 E9        30.09R
TOPEKA         LGT RAIN  72  69  90 NW6       30.05S



USA.gov is the U.S. government's official web portal to all federal, state and local government web resources and services.